Lid_Strength_Index
5 5 5 5 5 5 5 5 5 4 3 2 4 4 4 3 5 8 12 11 12 15 16 16 16 18 18 18 21 20 20 21 25 26 25 24 25 23 25 22 22 22 24 25 26 26 24 19 18 19 18 25 24 26
6 6 5 5 6 5 5 5 4 4 3 2 3 4 4 4 4 7 13 11 12 15 17 16 16 16 17 17 18 19 19 21 20 23 25 24 25 24 27 23 18 21 18 18 18 19 21 19 21 23 23 21 23 21
5 6 6 6 6 6 5 5 4 4 3 3 2 4 4 4 4 7 13 13 13 16 18 17 18 16 15 16 16 19 19 17 20 20 22 20 24 20 24 22 20 18 17 19 19 19 21 20 22 22 20 19 18 18
5 6 6 6 6 6 6 5 4 4 3 3 2 2 5 4 4 9 12 12 12 14 15 19 16 17 16 16 15 16 17 17 18 20 23 26 25 19 20 19 19 17 18 18 19 19 20 19 18 18 19 19 18 19
5 5 6 6 6 6 6 5 4 4 4 3 2 2 4 4 5 10 11 12 12 12 16 20 18 18 16 16 15 15 16 17 20 22 24 24 22 21 21 19 19 17 17 18 17 16 16 16 16 16 17 18 18 19
3 4 6 6 6 6 6 5 5 4 4 3 2 2 3 4 7 9 13 11 13 13 17 20 19 20 19 17 16 16 16 18 19 21 22 21 18 20 27 25 18 17 16 15 15 16 16 16 16 16 16 17 18 19
2 3 5 6 6 6 6 6 5 4 4 3 3 2 2 5 6 11 13 11 10 11 16 22 22 19 19 17 18 19 19 22 21 23 25 21 20 20 23 23 18 17 16 17 17 16 18 18 18 17 17 19 20 22
0 2 3 5 6 6 6 6 5 5 4 3 3 2 1 4 8 11 10 8 10 13 14 20 24 21 18 23 23 22 24 25 25 26 24 24 21 25 23 19 17 18 18 19 17 20 18 18 17 18 20 20 22 22
-1 0 2 4 5 6 6 6 6 5 4 3 2 2 5 10 13 13 8 8 11 12 15 19 22 24 19 21 22 23 21 28 29 29 28 26 29 24 21 20 18 18 17 18 22 23 22 20 19 20 20 21 20 21
-1 -0 2 3 4 5 6 6 6 5 4 3 5 10 13 12 8 8 12 14 13 13 14 19 23 25 20 23 23 25 26 29 29 29 29 32 27 20 19 21 21 19 19 20 22 22 25 25 20 20 19 19 19 20
-1 -1 1 2 3 4 6 6 5 6 4 7 11 13 11 5 11 13 14 14 14 17 16 19 21 23 21 25 26 25 29 32 30 29 29 31 26 21 24 26 26 23 21 19 22 22 21 21 19 19 19 19 20 21
-1 -1 0 1 3 4 5 5 5 7 9 8 10 9 11 11 11 14 15 15 15 17 21 23 23 22 24 23 26 27 30 31 30 34 32 29 22 22 26 26 26 29 29 25 25 22 21 20 18 18 18 19 20 20
-1 -1 -0 1 2 4 5 5 5 5 5 8 9 12 13 13 14 16 18 19 18 20 23 24 26 24 25 23 29 29 30 30 33 33 28 23 22 26 29 29 28 30 32 32 27 27 26 24 22 19 18 19 20 21
-1 -1 0 1 3 4 4 5 4 4 7 9 12 16 14 15 13 15 18 18 19 21 21 22 24 23 27 26 29 26 32 32 33 30 23 22 24 27 30 30 32 28 29 28 28 26 23 22 21 21 19 19 20 20
-1 -1 0 2 3 3 3 4 4 5 8 9 10 14 15 16 17 20 22 20 20 16 19 21 21 21 25 24 26 30 32 31 28 23 22 23 28 31 29 31 31 30 30 30 30 27 24 23 21 21 22 20 19 20
-1 -1 2 2 2 2 3 4 6 8 8 8 9 14 15 17 18 20 20 19 16 16 16 18 21 22 25 25 28 26 26 26 22 24 25 28 30 31 33 33 32 32 31 30 28 28 26 24 22 22 24 21 20 20
-0 4 1 2 1 2 3 6 7 9 8 10 12 16 19 19 18 18 17 17 14 15 17 19 20 20 23 27 26 26 24 22 24 27 29 30 31 32 34 33 31 30 30 28 27 28 26 27 24 24 23 25 24 23
4 2 2 1 2 3 5 6 7 9 17 14 14 16 16 20 17 18 17 14 15 19 18 16 21 23 22 21 24 22 24 26 27 28 30 30 31 31 32 31 29 29 28 26 25 27 26 26 26 25 26 26 26 27
2 2 1 1 3 6 8 10 10 16 17 16 15 16 16 19 20 18 15 16 18 19 17 19 19 22 22 22 22 23 23 23 23 26 28 29 30 29 30 29 29 29 28 27 26 26 28 27 26 26 27 27 25 26
0 1 2 1 3 8 11 12 11 15 16 16 16 17 19 17 18 19 15 18 17 17 17 19 21 26 23 24 25 25 25 25 23 23 24 24 25 27 28 28 28 29 28 25 25 25 25 25 26 27 28 27 27 27
2 3 3 5 10 11 13 14 16 17 16 17 16 18 18 18 18 16 15 17 16 20 22 23 27 28 26 27 26 28 26 25 26 25 25 25 25 24 26 26 26 26 26 27 27 27 26 28 27 27 27 27 26 25
6 4 8 8 12 14 16 15 15 16 18 16 16 16 17 17 20 23 24 22 25 30 31 28 27 26 27 29 28 27 28 26 24 24 24 24 26 26 26 26 26 26 27 28 28 28 28 28 29 28 28 28 28 27
5 6 9 11 14 14 17 19 20 17 16 17 17 18 18 17 18 18 25 28 30 29 31 31 30 29 27 28 26 28 28 27 27 27 27 26 25 25 26 26 27 28 28 27 27 28 28 27 27 28 29 29 28 28
7 11 13 15 16 20 17 17 18 19 16 16 19 22 22 21 19 20 25 31 31 31 32 32 32 27 25 26 28 29 29 28 27 28 28 27 27 27 26 27 28 29 29 28 28 27 27 27 27 28 28 28 28 28
11 16 16 20 21 19 18 18 17 21 19 25 22 23 22 19 19 23 28 32 33 34 33 32 30 29 27 28 29 30 29 30 29 29 30 29 29 28 28 29 29 30 29 29 29 29 30 29 28 30 29 30 30 30
20 20 16 16 20 20 18 16 22 24 24 27 26 26 27 25 21 25 34 36 35 35 36 35 34 32 31 30 30 30 31 29 30 29 30 30 30 32 33 32 31 30 29 31 31 32 31 30 31 29 29 29 29 30
21 20 19 21 25 24 20 18 22 21 24 25 28 28 25 23 22 33 32 32 34 34 34 34 33 32 33 32 30 30 31 30 30 31 31 30 30 30 29 30 30 30 28 29 31 32 32 31 30 30 29 31 31 31
24 22 19 27 28 29 27 26 25 25 29 28 25 29 30 28 34 35 34 33 34 32 32 32 32 32 32 32 30 30 31 31 30 30 30 29 29 29 29 30 30 24 28 30 29 28 28 29 30 31 31 31 31 31
23 23 20 26 31 31 32 32 34 34 33 34 30 35 39 37 38 37 34 33 32 32 34 34 33 33 31 31 30 31 31 31 31 30 31 32 32 31 30 31 31 31 31 32 27 23 24 26 30 31 31 31 31 32
24 24 25 32 32 33 33 33 35 33 36 37 35 35 36 37 37 35 34 35 35 34 34 35 34 34 33 32 32 32 31 32 32 31 32 34 33 31 31 31 31 31 31 33 30 30 26 30 29 31 31 31 32 32
29 27 26 31 30 28 29 29 31 33 36 38 38 38 38 36 35 34 34 35 35 34 33 34 34 34 34 34 35 35 35 35 35 34 33 32 32 32 33 33 32 34 34 33 32 32 32 32 33 32 32 32 32 31
30 32 30 29 31 28 29 30 28 31 35 36 38 37 36 36 38 36 33 35 35 34 34 34 34 34 34 33 32 33 31 32 32 31 31 30 32 33 34 34 34 33 32 32 33 33 33 33 33 33 33 33 33 33
33 34 34 32 31 35 32 32 33 31 35 36 37 37 39 38 38 36 33 33 34 35 35 34 33 33 32 32 32 32 31 31 28 24 25 26 28 30 33 33 33 32 33 33 34 34 34 34 33 34 34 33 32 32